This is the latest recevied weather packets stored in our database for station/object KB1QVF. If no packets are shown the sender has not sent any weather packets the latest 10 day(s).
| Time | Temp. | Humidity | Pressure | Rain* | Wind** | Luminosity | Snow |
|---|---|---|---|---|---|---|---|
| 1778028502 | 15.56° C | 67% | 1013 hPa | 0 mm | - | 0 W/m² | - |
| 1778028200 | 15.56° C | 68% | 1012.9 hPa | 0 mm | - | 0 W/m² | - |
| 1778027895 | 15.56° C | 67% | 1012.9 hPa | 0 mm | - | 0 W/m² | - |
| 1778027592 | 15.56° C | 67% | 1012.5 hPa | 0 mm | - | 0 W/m² | - |
| 1778027288 | 16.11° C | 66% | 1012.5 hPa | 0 mm | - | 0 W/m² | - |
| 1778026985 | 16.11° C | 66% | 1012.4 hPa | 0 mm | - | 0 W/m² | - |
| 1778026680 | 16.11° C | 66% | 1012.2 hPa | 0 mm | - | 0 W/m² | - |
| 1778026378 | 16.11° C | 65% | 1012.4 hPa | 0 mm | - | 0 W/m² | - |
| 1778026075 | 16.11° C | 66% | 1012.4 hPa | 0 mm | - | 0 W/m² | - |
| 1778025772 | 16.11° C | 65% | 1012.3 hPa | 0 mm | - | 0 W/m² | - |
| 1778025469 | 16.67° C | 65% | 1012.2 hPa | 0 mm | - | 1 W/m² | - |
| 1778025167 | 16.67° C | 65% | 1011.9 hPa | 0 mm | - | 2 W/m² | - |
| 1778024863 | 16.67° C | 64% | 1011.9 hPa | 0 mm | - | 3 W/m² | - |
| 1778024561 | 16.67° C | 63% | 1011.8 hPa | 0 mm | - | 5 W/m² | - |
| 1778024257 | 17.22° C | 63% | 1011.8 hPa | 0 mm | - | 8 W/m² | - |
| 1778023956 | 17.22° C | 62% | 1011.7 hPa | 0 mm | - | 11 W/m² | - |
| 1778023652 | 17.22° C | 62% | 1011.6 hPa | 0 mm | - | 16 W/m² | - |
| 1778023350 | 17.78° C | 61% | 1011.5 hPa | 0 mm | - | 22 W/m² | - |
| 1778023046 | 17.78° C | 61% | 1011.8 hPa | 0 mm | - | 26 W/m² | - |
| 1778022746 | 17.78° C | 60% | 1011.4 hPa | 0 mm | - | 30 W/m² | - |
| 1778022443 | 18.33° C | 59% | 1011.2 hPa | 0 mm | - | 34 W/m² | - |
| 1778022140 | 18.33° C | 59% | 1011 hPa | 0 mm | - | 42 W/m² | - |
| 1778021836 | 18.89° C | 58% | 1011.2 hPa | 0 mm | - | 51 W/m² | - |
| 1778021533 | 18.89° C | 58% | 1011 hPa | 0 mm | - | 65 W/m² | - |
| 1778021228 | 18.89° C | 57% | 1010.6 hPa | 0 mm | - | 73 W/m² | - |
* Rain latest hour (hover to see other rain measurements)
** Current wind speed in m/s (hover to see current wind gust speed)